[[{"header":{"parameterUnit":"m.s-1","parameterCategory":1,"la1":30.2991,"la2":30.254,"lo1":-89.0895,"lo2":-89.0444,"dy":0.0017,"dx":0.0017,"nx":28,"ny":28,"refTime":"2025-01-31T09:00:00:Z","depth":0,"parameterNumber":2,"parameterNumberName":"U-component_of_WINDS"},"data":[0,0,0,0,0,0,0,0,0,0,0,0,0,0,0,0,0,0,0,0,0,0,0,0,0,0,0,0,0,0,0,0,0,0,0,0,0,0,0,0,0,0,0,0,0,0,0,0,0,0,0,0,0,0,0,0,0,0,0.4162,0.4163,0,0.4186,0.4187,0.4187,0.4183,0.4182,0.4182,0.4182,0.4204,0.4205,0.4206,0,0,0,0,0,0,0,0,0,0,0,0,0,0.4112,0.4113,0.4162,0.4163,0.4163,0.4186,0.4187,0.4187,0.4183,0.4182,0.4182,0.4181,0.4204,0.4205,0.4206,0,0,0,0,0,0,0,0,0,0,0,0,0,0.4134,0.4113,0.4162,0.4164,0.4164,0.4186,0.4187,0.4187,0.4183,0.4182,0.4182,0.4181,0.4203,0.4205,0.4206,0.4228,0,0,0.4211,0.4211,0,0,0,0,0,0,0,0,0.4133,0.4136,0.4163,0.4164,0.4164,0.4181,0.4177,0.4201,0.4183,0.4176,0.4181,0.4181,0.4197,0.4199,0.4204,0.4229,0.423,0.4211,0.4212,0.4212,0.4213,0,0,0,0,0,0,0,0.4131,0.4135,0.4172,0.4164,0.4164,0.4163,0.4165,0.4181,0.4189,0.4176,0.4176,0.4179,0.4197,0.4203,0.4205,0.423,0.4211,0.4212,0.4213,0.4214,0.4273,0.4273,0,0,0,0,0,0,0.413,0.4134,0.4171,0.4173,0.4147,0.4164,0.4167,0.4176,0.4189,0.4191,0.418,0.4179,0.4201,0.4203,0.4206,0.4231,0.4212,0.4214,0.4215,0.4272,0.4273,0.4273,0,0,0,0,0,0,0.4129,0.4133,0.417,0.4153,0.4158,0.4166,0.4176,0.4177,0.4183,0.4192,0.4193,0.4185,0.42,0.4204,0.4222,0.4232,0.4214,0.4216,0.4271,0.4272,0.4273,0.4283,0,0,0,0,0,0,0.4127,0.4133,0.4141,0.4153,0.4159,0.4187,0.4177,0.4178,0.4186,0.4185,0.4197,0.4198,0.42,0.422,0.4224,0.4234,0.4217,0.427,0.4272,0.4273,0.4282,0.4284,0.4286,0,0,0,0,0,0.4125,0.4143,0.4142,0.4146,0.417,0.4187,0.419,0.4193,0.4187,0.4195,0.4201,0.4198,0.4231,0.4222,0.4226,0.4237,0.427,0.4271,0.4273,0.4281,0.4284,0.4286,0,0,0,0,0,0,0.4131,0.4144,0.4143,0.4165,0.4175,0.4187,0.4197,0.4196,0.4208,0.4206,0.4209,0.4211,0.423,0.4235,0.4226,0.4258,0.4249,0.4251,0.4254,0.4257,0.4259,0.4257,0.4218,0,0,0,0,0,0.4135,0.4149,0.416,0.4178,0.4183,0.4189,0.4197,0.4199,0.4209,0.4213,0.4219,0.4229,0.4241,0.4249,0.4261,0.4283,0.4285,0.4292,0.4294,0.4296,0.4298,0.4309,0.4312,0.4278,0.4278,0.4278,0,0,0.4143,0.4152,0.416,0.4179,0.4187,0.4201,0.4193,0.4208,0.4218,0.4215,0.4233,0.4238,0.4249,0.4269,0.4278,0.4273,0.4307,0.4298,0.4299,0.43,0.4311,0.4314,0.4317,0.4279,0.4279,0.4279,0,0,0.4164,0.4173,0.4189,0.4197,0.4209,0.4214,0.4217,0.4229,0.4233,0.4251,0.4249,0.426,0.4282,0.429,0.4296,0.4321,0.4318,0.4324,0.4336,0.4347,0.4349,0.4352,0.436,0.4363,0.4326,0.4326,0.4326,0,0.4172,0.4194,0.4197,0.4212,0.422,0.4219,0.4235,0.4242,0.4258,0.4263,0.4258,0.4285,0.4292,0.4314,0.432,0.4325,0.4329,0.4323,0.4349,0.4351,0.4353,0.4361,0.4364,0.4327,0.4327,0.4327,0.4327,0,0.4203,0.4217,0.4229,0.4244,0.4253,0.4269,0.4274,0.4283,0.4284,0.4288,0.4306,0.4315,0.4329,0.4334,0.4334,0.4355,0.4352,0.4348,0.4339,0.4357,0.4364,0.4367,0.4328,0.4328,0.4328,0.4327,0,0,0.4228,0.4245,0.4249,0.4256,0.427,0.4281,0.4296,0.431,0.4317,0.4328,0.434,0.4358,0.4354,0.4362,0.4363,0.4373,0.4391,0.4368,0.4368,0.4371,0.4414,0.4416,0.442,0.439,0.439,0.4391,0.4413,0,0.425,0.4277,0.4281,0.4305,0.4318,0.4317,0.433,0.4339,0.4344,0.4355,0.436,0.4373,0.4368,0.4372,0.4382,0.4387,0.44,0.4385,0.44,0.4401,0.4397,0.4424,0.4426,0.4447,0.4416,0.4416,0.4417,0,0.4279,0.4291,0.4316,0.4328,0.4334,0.4346,0.4358,0.437,0.438,0.4383,0.4391,0.4391,0.4406,0.4397,0.4418,0.4408,0.4414,0.4418,0.4419,0.4419,0.4409,0.4425,0.4453,0.4456,0.4421,0.4421,0.442,0,0.4294,0.4317,0.4335,0.434,0.4355,0.4363,0.4369,0.4379,0.4387,0.4398,0.4403,0.4416,0.4422,0.4432,0.4435,0.4428,0.4455,0.4446,0.4457,0.4457,0.4462,0.4461,0.4491,0.4467,0.4467,0.4467,0.4467,0,0.4318,0.4333,0.4341,0.4352,0.4369,0.4373,0.439,0.4396,0.4404,0.4416,0.4416,0.4427,0.4431,0.4442,0.4445,0.4461,0.4464,0.4466,0.4466,0.4466,0.4465,0.4469,0.4468,0.4468,0.4468,0.4467,0.4467,0,0.4337,0.4343,0.4363,0.4375,0.4378,0.439,0.44,0.441,0.4415,0.443,0.4433,0.444,0.4454,0.4458,0.4474,0.4476,0.4494,0.4494,0.4491,0.4491,0.4501,0.4499,0.4534,0.4538,0.4512,0.4512,0.4512,0,0.4351,0.4363,0.4377,0.4385,0.4392,0.4405,0.4413,0.4417,0.4426,0.4439,0.4447,0.4461,0.4471,0.4492,0.4499,0.4511,0.451,0.4521,0.4512,0.451,0.4509,0.4508,0.4509,0.4523,0.4523,0.4523,0.4523,0,0.4376,0.4379,0.4391,0.4405,0.4415,0.4425,0.4436,0.4442,0.4448,0.4457,0.4471,0.448,0.4496,0.4509,0.4522,0.4527,0.4526,0.4526,0.4529,0.4528,0.4526,0.4527,0.4495,0.4525,0.4525,0.4525,0.4525,0.4525,0.4393,0.4403,0.4415,0.4428,0.4437,0.4446,0.4456,0.4463,0.4475,0.4489,0.4491,0.4505,0.4515,0.4532,0.4538,0.4549,0.4546,0.455,0.4551,0.4552,0.4552,0.4525,0.4551,0.4551,0.4551,0.4551,0.4551,0,0.4417,0.4424,0.4437,0.4452,0.4462,0.4461,0.4473,0.4481,0.4494,0.4504,0.4515,0.4531,0.4543,0.4551,0.4563,0.4571,0.457,0.4574,0.4573,0.4574,0.4555,0.4551,0.4574,0.4574,0.4574,0.4574,0.4574,0.4574,0.4431,0.4448,0.4452,0.4473,0.448,0.4495,0.4502,0.4511,0.4518,0.4536,0.4547,0.4552,0.456,0.4573,0.4585,0.4587,0.4591,0.4594,0.4596,0.4578,0.4575,0.4573,0.4569,0.4595,0.4595,0.4614,0.4614,0.4614]},{"header":{"parameterUnit":"m.s-1","parameterCategory":1,"la1":30.2991,"la2":30.254,"lo1":-89.0895,"lo2":-89.0444,"dy":0.0017,"dx":0.0017,"nx":28,"ny":28,"refTime":"2025-01-31T09:00:00:Z","depth":0,"parameterNumber":3,"parameterNumberName":"V-component_of_WINDS"},"data":[0,0,0,0,0,0,0,0,0,0,0,0,0,0,0,0,0,0,0,0,0,0,0,0,0,0,0,0,0,0,0,0,0,0,0,0,0,0,0,0,0,0,0,0,0,0,0,0,0,0,0,0,0,0,0,0,0,0,-2.2547,-2.2547,0,-2.2602,-2.2603,-2.2604,-2.2613,-2.2613,-2.2612,-2.2612,-2.2668,-2.267,-2.2672,0,0,0,0,0,0,0,0,0,0,0,0,0,-2.245,-2.2452,-2.2547,-2.2547,-2.2548,-2.2602,-2.2603,-2.2604,-2.2613,-2.2613,-2.2612,-2.2612,-2.2667,-2.267,-2.2672,0,0,0,0,0,0,0,0,0,0,0,0,0,-2.2498,-2.2453,-2.2547,-2.256,-2.2561,-2.2602,-2.2603,-2.2604,-2.2614,-2.2613,-2.2612,-2.2612,-2.2667,-2.2669,-2.2672,-2.2704,0,0,-2.2681,-2.2682,0,0,0,0,0,0,0,0,-2.2495,-2.2501,-2.2557,-2.2559,-2.2561,-2.26,-2.259,-2.2637,-2.2614,-2.2594,-2.2612,-2.2611,-2.2646,-2.265,-2.2662,-2.2706,-2.2709,-2.2681,-2.2683,-2.2684,-2.2685,0,0,0,0,0,0,0,-2.2492,-2.2499,-2.2569,-2.2558,-2.256,-2.2563,-2.2569,-2.2599,-2.2623,-2.2595,-2.2596,-2.2603,-2.2647,-2.266,-2.2664,-2.271,-2.2681,-2.2684,-2.2685,-2.2687,-2.2786,-2.2787,0,0,0,0,0,0,-2.2486,-2.2496,-2.2567,-2.257,-2.2526,-2.2565,-2.2572,-2.2588,-2.2623,-2.2627,-2.2603,-2.2603,-2.2655,-2.266,-2.2666,-2.2707,-2.2684,-2.2687,-2.2689,-2.2785,-2.2786,-2.2787,0,0,0,0,0,0,-2.2484,-2.2492,-2.2565,-2.2534,-2.2543,-2.2568,-2.2586,-2.259,-2.2602,-2.2629,-2.2633,-2.2612,-2.2655,-2.2662,-2.2695,-2.2709,-2.2688,-2.2691,-2.2784,-2.2785,-2.2787,-2.2789,0,0,0,0,0,0,-2.2481,-2.2491,-2.2503,-2.2534,-2.2545,-2.2593,-2.2587,-2.2591,-2.2608,-2.2608,-2.2638,-2.2642,-2.2655,-2.2691,-2.2698,-2.2713,-2.2693,-2.2783,-2.2785,-2.2786,-2.2788,-2.279,-2.2793,0,0,0,0,0,-2.2478,-2.2501,-2.2504,-2.2512,-2.256,-2.2593,-2.26,-2.2614,-2.2609,-2.2621,-2.2639,-2.2641,-2.2706,-2.2694,-2.2702,-2.2718,-2.2782,-2.2784,-2.2786,-2.2787,-2.279,-2.2793,0,0,0,0,0,0,-2.247,-2.2505,-2.2508,-2.2542,-2.2565,-2.2595,-2.2611,-2.2616,-2.2641,-2.264,-2.2656,-2.2663,-2.2696,-2.271,-2.2696,-2.2752,-2.2744,-2.2748,-2.2742,-2.2745,-2.2747,-2.2743,-2.2695,0,0,0,0,0,-2.2472,-2.2497,-2.2526,-2.2553,-2.2564,-2.2586,-2.2601,-2.261,-2.2634,-2.2644,-2.2663,-2.2687,-2.2713,-2.273,-2.2755,-2.279,-2.2798,-2.2805,-2.2808,-2.281,-2.2813,-2.2836,-2.284,-2.2794,-2.2794,-2.2794,0,0,-2.2477,-2.2499,-2.2513,-2.2552,-2.2571,-2.2596,-2.2594,-2.262,-2.264,-2.2648,-2.2681,-2.2697,-2.2724,-2.2759,-2.2776,-2.2772,-2.2828,-2.2812,-2.2813,-2.2816,-2.2838,-2.2842,-2.2846,-2.2795,-2.2795,-2.2795,0,0,-2.2499,-2.2518,-2.2543,-2.2563,-2.2592,-2.2607,-2.2613,-2.2643,-2.2654,-2.2688,-2.2696,-2.272,-2.2763,-2.2784,-2.2799,-2.2833,-2.2837,-2.2841,-2.2853,-2.2875,-2.2879,-2.2882,-2.2896,-2.2901,-2.2844,-2.2844,-2.2844,0,-2.2501,-2.254,-2.2556,-2.2583,-2.2601,-2.2611,-2.2638,-2.2656,-2.2692,-2.2704,-2.27,-2.2757,-2.2776,-2.2818,-2.2826,-2.2838,-2.2847,-2.2837,-2.2877,-2.288,-2.2884,-2.2898,-2.2902,-2.2844,-2.2844,-2.2844,-2.2844,0,-2.2543,-2.257,-2.2587,-2.2623,-2.2643,-2.267,-2.269,-2.2708,-2.2717,-2.2733,-2.2769,-2.2792,-2.2824,-2.2834,-2.2841,-2.2878,-2.2875,-2.2873,-2.2866,-2.2888,-2.2902,-2.2907,-2.2845,-2.2844,-2.2844,-2.2844,0,0,-2.256,-2.2606,-2.2613,-2.263,-2.2665,-2.2686,-2.2715,-2.2747,-2.2763,-2.2788,-2.2813,-2.2852,-2.2852,-2.287,-2.288,-2.2899,-2.2928,-2.2896,-2.2897,-2.2903,-2.2972,-2.2974,-2.2979,-2.2931,-2.2932,-2.2932,-2.297,0,-2.2587,-2.2639,-2.2655,-2.2698,-2.2725,-2.2736,-2.2762,-2.2786,-2.2802,-2.2827,-2.2845,-2.2873,-2.287,-2.2881,-2.2901,-2.292,-2.2942,-2.2917,-2.2956,-2.2957,-2.295,-2.2986,-2.2987,-2.3022,-2.2975,-2.2976,-2.2977,0,-2.2626,-2.2653,-2.27,-2.2734,-2.2746,-2.2768,-2.28,-2.2824,-2.2853,-2.2863,-2.2885,-2.2895,-2.2926,-2.2917,-2.2962,-2.2945,-2.2961,-2.2974,-2.2975,-2.298,-2.2969,-2.2993,-2.3033,-2.3038,-2.2985,-2.2984,-2.2983,0,-2.2636,-2.2685,-2.272,-2.2734,-2.2774,-2.279,-2.2807,-2.2835,-2.2855,-2.2883,-2.2896,-2.2927,-2.2945,-2.2969,-2.2987,-2.2978,-2.3032,-2.3023,-2.3043,-2.3042,-2.3054,-2.3053,-2.3098,-2.3062,-2.3062,-2.3062,-2.3062,0,-2.2666,-2.2694,-2.2725,-2.2747,-2.278,-2.2799,-2.2831,-2.2849,-2.2875,-2.2901,-2.2912,-2.2936,-2.2959,-2.2986,-2.3001,-2.3037,-2.3044,-2.3055,-2.3059,-2.3055,-2.3054,-2.3066,-2.3065,-2.3063,-2.3063,-2.3063,-2.3063,0,-2.2683,-2.2704,-2.2744,-2.2779,-2.2789,-2.2812,-2.2843,-2.2865,-2.2882,-2.2916,-2.2924,-2.2952,-2.2985,-2.3006,-2.3048,-2.3058,-2.3099,-2.3101,-2.309,-2.3092,-2.3111,-2.311,-2.3167,-2.3177,-2.3133,-2.3133,-2.3134,0,-2.27,-2.2723,-2.2762,-2.2781,-2.2799,-2.2828,-2.2849,-2.287,-2.2891,-2.2927,-2.2945,-2.298,-2.3009,-2.3062,-2.3086,-2.3119,-2.3123,-2.3141,-2.3128,-2.3124,-2.3126,-2.3125,-2.3128,-2.3143,-2.3143,-2.3144,-2.3144,0,-2.2731,-2.2741,-2.277,-2.2805,-2.2829,-2.2857,-2.2884,-2.2899,-2.2924,-2.2948,-2.2983,-2.3005,-2.305,-2.3085,-2.3121,-2.3139,-2.3147,-2.3148,-2.3155,-2.3151,-2.3145,-2.3151,-2.3097,-2.3147,-2.3146,-2.3146,-2.3146,-2.3146,-2.275,-2.2772,-2.2804,-2.2837,-2.286,-2.2886,-2.291,-2.2931,-2.2961,-2.3,-2.301,-2.3048,-2.3079,-2.3128,-2.3148,-2.3178,-2.3175,-2.3184,-2.3187,-2.3189,-2.3191,-2.3139,-2.3184,-2.3184,-2.3184,-2.3184,-2.3184,0,-2.2782,-2.2804,-2.2834,-2.2874,-2.2901,-2.2906,-2.2938,-2.296,-2.2993,-2.3022,-2.3051,-2.3093,-2.3128,-2.3155,-2.3192,-2.3211,-2.3215,-2.322,-2.3219,-2.3224,-2.319,-2.3182,-2.3216,-2.3216,-2.3216,-2.3216,-2.3216,-2.3216,-2.2802,-2.284,-2.2855,-2.2906,-2.2928,-2.2965,-2.2983,-2.3008,-2.3032,-2.3079,-2.3108,-2.3126,-2.3156,-2.3195,-2.3228,-2.3235,-2.3249,-2.3253,-2.3261,-2.3229,-2.3226,-2.3222,-2.3215,-2.3255,-2.3255,-2.3292,-2.3293,-2.3293]}]]